owner,sensor,date,latitude,longitude,vertical_datum,sea_water_practical_salinity,qcFlag 
COMPS,ioos:station:USF.COMPS:C10:1,2010-05-01T00:00:00Z,27.1690,-82.9260,5.0,34.59,1111122 
COMPS,ioos:station:USF.COMPS:C10:1,2010-05-01T00:20:00Z,27.1690,-82.9260,5.0,34.59,1111122 
COMPS,ioos:station:USF.COMPS:C10:1,2010-05-01T00:40:00Z,27.1690,-82.9260,5.0,34.58,1111122 
COMPS,ioos:station:USF.COMPS:C10:1,2010-05-01T01:00:00Z,27.1690,-82.9260,5.0,34.58,1111122 
COMPS,ioos:station:USF.COMPS:C10:1,2010-05-01T01:20:00Z,27.1690,-82.9260,5.0,34.58,1111122 
COMPS,ioos:station:USF.COMPS:C10:1,2010-05-01T01:40:00Z,27.1690,-82.9260,5.0,34.57,1111122 
COMPS,ioos:station:USF.COMPS:C10:1,2010-05-01T02:00:00Z,27.1690,-82.9260,5.0,34.57,1111122 
COMPS,ioos:station:USF.COMPS:C10:1,2010-05-01T02:20:00Z,27.1690,-82.9260,5.0,34.57,1111122 
COMPS,ioos:station:USF.COMPS:C10:1,2010-05-01T02:40:00Z,27.1690,-82.9260,5.0,34.56,1111122 
COMPS,ioos:station:USF.COMPS:C10:1,2010-05-01T03:00:00Z,27.1690,-82.9260,5.0,34.56,1111122 
COMPS,ioos:station:USF.COMPS:C10:1,2010-05-01T03:20:00Z,27.1690,-82.9260,5.0,34.55,1111122 
COMPS,ioos:station:USF.COMPS:C10:1,2010-05-01T03:40:00Z,27.1690,-82.9260,5.0,34.55,1111122 
COMPS,ioos:station:USF.COMPS:C10:1,2010-05-01T04:00:00Z,27.1690,-82.9260,5.0,34.55,1111122 
COMPS,ioos:station:USF.COMPS:C10:1,2010-05-01T04:20:00Z,27.1690,-82.9260,5.0,34.55,1111122 
COMPS,ioos:station:USF.COMPS:C10:1,2010-05-01T04:40:00Z,27.1690,-82.9260,5.0,34.54,1111122 
COMPS,ioos:station:USF.COMPS:C10:1,2010-05-01T05:00:00Z,27.1690,-82.9260,5.0,34.54,1111122 
COMPS,ioos:station:USF.COMPS:C10:1,2010-05-01T05:20:00Z,27.1690,-82.9260,5.0,34.54,1111122 
COMPS,ioos:station:USF.COMPS:C10:1,2010-05-01T05:40:00Z,27.1690,-82.9260,5.0,34.53,1111122 
COMPS,ioos:station:USF.COMPS:C10:1,2010-05-01T06:00:00Z,27.1690,-82.9260,5.0,34.53,1111122 
COMPS,ioos:station:USF.COMPS:C10:1,2010-05-01T06:20:00Z,27.1690,-82.9260,5.0,34.52,1111122 
COMPS,ioos:station:USF.COMPS:C10:1,2010-05-01T06:40:00Z,27.1690,-82.9260,5.0,34.52,1111122 
COMPS,ioos:station:USF.COMPS:C10:1,2010-05-01T07:00:00Z,27.1690,-82.9260,5.0,34.52,1111122 
COMPS,ioos:station:USF.COMPS:C10:1,2010-05-01T07:20:00Z,27.1690,-82.9260,5.0,34.52,1111122 
COMPS,ioos:station:USF.COMPS:C10:1,2010-05-01T07:40:00Z,27.1690,-82.9260,5.0,34.52,1111122 
COMPS,ioos:station:USF.COMPS:C10:1,2010-05-01T08:00:00Z,27.1690,-82.9260,5.0,34.52,1111122 
COMPS,ioos:station:USF.COMPS:C10:1,2010-05-01T08:20:00Z,27.1690,-82.9260,5.0,34.52,1111122 
COMPS,ioos:station:USF.COMPS:C10:1,2010-05-01T08:40:00Z,27.1690,-82.9260,5.0,34.52,1111122 
COMPS,ioos:station:USF.COMPS:C10:1,2010-05-01T09:00:00Z,27.1690,-82.9260,5.0,34.52,1111122 
COMPS,ioos:station:USF.COMPS:C10:1,2010-05-01T09:20:00Z,27.1690,-82.9260,5.0,34.52,1111122 
COMPS,ioos:station:USF.COMPS:C10:1,2010-05-01T09:40:00Z,27.1690,-82.9260,5.0,34.51,1111122 
COMPS,ioos:station:USF.COMPS:C10:1,2010-05-01T10:00:00Z,27.1690,-82.9260,5.0,34.51,1111122 
COMPS,ioos:station:USF.COMPS:C10:1,2010-05-01T10:20:00Z,27.1690,-82.9260,5.0,34.51,1111122 
COMPS,ioos:station:USF.COMPS:C10:1,2010-05-01T10:40:00Z,27.1690,-82.9260,5.0,34.51,1111122 
COMPS,ioos:station:USF.COMPS:C10:1,2010-05-01T11:00:00Z,27.1690,-82.9260,5.0,34.51,1111122 
COMPS,ioos:station:USF.COMPS:C10:1,2010-05-01T11:20:00Z,27.1690,-82.9260,5.0,34.5,1111122 
COMPS,ioos:station:USF.COMPS:C10:1,2010-05-01T11:40:00Z,27.1690,-82.9260,5.0,34.5,1111122 
COMPS,ioos:station:USF.COMPS:C10:1,2010-05-01T12:00:00Z,27.1690,-82.9260,5.0,34.5,1111122 
COMPS,ioos:station:USF.COMPS:C10:1,2010-05-01T12:20:00Z,27.1690,-82.9260,5.0,34.5,1111122 
COMPS,ioos:station:USF.COMPS:C10:1,2010-05-01T12:40:00Z,27.1690,-82.9260,5.0,34.5,1111122 
COMPS,ioos:station:USF.COMPS:C10:1,2010-05-01T13:00:00Z,27.1690,-82.9260,5.0,34.5,1111122 
COMPS,ioos:station:USF.COMPS:C10:1,2010-05-01T13:20:00Z,27.1690,-82.9260,5.0,34.49,1111122 
COMPS,ioos:station:USF.COMPS:C10:1,2010-05-01T13:40:00Z,27.1690,-82.9260,5.0,34.49,1111122 
COMPS,ioos:station:USF.COMPS:C10:1,2010-05-01T14:00:00Z,27.1690,-82.9260,5.0,34.49,1111122 
COMPS,ioos:station:USF.COMPS:C10:1,2010-05-01T14:20:00Z,27.1690,-82.9260,5.0,34.49,1111122 
COMPS,ioos:station:USF.COMPS:C10:1,2010-05-01T14:40:00Z,27.1690,-82.9260,5.0,34.49,1111122 
COMPS,ioos:station:USF.COMPS:C10:1,2010-05-01T15:00:00Z,27.1690,-82.9260,5.0,34.48,1111122 
COMPS,ioos:station:USF.COMPS:C10:1,2010-05-01T15:20:00Z,27.1690,-82.9260,5.0,34.48,1111122 
COMPS,ioos:station:USF.COMPS:C10:1,2010-05-01T15:40:00Z,27.1690,-82.9260,5.0,34.47,1111122 
COMPS,ioos:station:USF.COMPS:C10:1,2010-05-01T16:00:00Z,27.1690,-82.9260,5.0,34.47,1111122 
COMPS,ioos:station:USF.COMPS:C10:1,2010-05-01T16:20:00Z,27.1690,-82.9260,5.0,34.47,1111122 
COMPS,ioos:station:USF.COMPS:C10:1,2010-05-01T16:40:00Z,27.1690,-82.9260,5.0,34.47,1111122 
COMPS,ioos:station:USF.COMPS:C10:1,2010-05-01T17:00:00Z,27.1690,-82.9260,5.0,34.46,1111122 
COMPS,ioos:station:USF.COMPS:C10:1,2010-05-01T17:20:00Z,27.1690,-82.9260,5.0,34.47,1111122 
COMPS,ioos:station:USF.COMPS:C10:1,2010-05-01T17:40:00Z,27.1690,-82.9260,5.0,34.46,1111122 
COMPS,ioos:station:USF.COMPS:C10:1,2010-05-01T18:00:00Z,27.1690,-82.9260,5.0,34.46,1111122 
COMPS,ioos:station:USF.COMPS:C10:1,2010-05-01T18:20:00Z,27.1690,-82.9260,5.0,34.46,1111122 
COMPS,ioos:station:USF.COMPS:C10:1,2010-05-01T18:40:00Z,27.1690,-82.9260,5.0,34.46,1111122 
COMPS,ioos:station:USF.COMPS:C10:1,2010-05-01T19:00:00Z,27.1690,-82.9260,5.0,34.45,1111122 
COMPS,ioos:station:USF.COMPS:C10:1,2010-05-01T19:20:00Z,27.1690,-82.9260,5.0,34.46,1111122 
COMPS,ioos:station:USF.COMPS:C10:1,2010-05-01T19:40:00Z,27.1690,-82.9260,5.0,34.45,1111122 
COMPS,ioos:station:USF.COMPS:C10:1,2010-05-01T20:00:00Z,27.1690,-82.9260,5.0,34.45,1111122 
COMPS,ioos:station:USF.COMPS:C10:1,2010-05-01T20:20:00Z,27.1690,-82.9260,5.0,34.45,1111122 
COMPS,ioos:station:USF.COMPS:C10:1,2010-05-01T20:40:00Z,27.1690,-82.9260,5.0,34.45,1111122 
COMPS,ioos:station:USF.COMPS:C10:1,2010-05-01T21:00:00Z,27.1690,-82.9260,5.0,34.45,1111122 
COMPS,ioos:station:USF.COMPS:C10:1,2010-05-01T21:20:00Z,27.1690,-82.9260,5.0,34.46,1111122 
COMPS,ioos:station:USF.COMPS:C10:1,2010-05-01T21:40:00Z,27.1690,-82.9260,5.0,34.45,1111122 
COMPS,ioos:station:USF.COMPS:C10:1,2010-05-01T22:00:00Z,27.1690,-82.9260,5.0,34.46,1111122 
COMPS,ioos:station:USF.COMPS:C10:1,2010-05-01T22:20:00Z,27.1690,-82.9260,5.0,34.45,1111122 
COMPS,ioos:station:USF.COMPS:C10:1,2010-05-01T22:40:00Z,27.1690,-82.9260,5.0,34.46,1111122 
COMPS,ioos:station:USF.COMPS:C10:1,2010-05-01T23:00:00Z,27.1690,-82.9260,5.0,34.46,1111122 
COMPS,ioos:station:USF.COMPS:C10:1,2010-05-01T23:20:00Z,27.1690,-82.9260,5.0,34.46,1111122 
COMPS,ioos:station:USF.COMPS:C10:1,2010-05-01T23:40:00Z,27.1690,-82.9260,5.0,34.46,1111122 
COMPS,ioos:station:USF.COMPS:C10:1,2010-05-02T00:00:00Z,27.1690,-82.9260,5.0,34.46,1111122 
COMPS,ioos:station:USF.COMPS:C10:1,2010-05-02T00:20:00Z,27.1690,-82.9260,5.0,34.46,1111122 
COMPS,ioos:station:USF.COMPS:C10:1,2010-05-02T00:40:00Z,27.1690,-82.9260,5.0,34.46,1111122 
COMPS,ioos:station:USF.COMPS:C10:1,2010-05-02T01:00:00Z,27.1690,-82.9260,5.0,34.45,1111122 
COMPS,ioos:station:USF.COMPS:C10:1,2010-05-02T01:20:00Z,27.1690,-82.9260,5.0,34.45,1111122 
COMPS,ioos:station:USF.COMPS:C10:1,2010-05-02T01:40:00Z,27.1690,-82.9260,5.0,34.45,1111122 
COMPS,ioos:station:USF.COMPS:C10:1,2010-05-02T02:00:00Z,27.1690,-82.9260,5.0,34.45,1111122 
COMPS,ioos:station:USF.COMPS:C10:1,2010-05-02T02:20:00Z,27.1690,-82.9260,5.0,34.45,1111122 
COMPS,ioos:station:USF.COMPS:C10:1,2010-05-02T02:40:00Z,27.1690,-82.9260,5.0,34.45,1111122 
COMPS,ioos:station:USF.COMPS:C10:1,2010-05-02T03:00:00Z,27.1690,-82.9260,5.0,34.45,1111122 
COMPS,ioos:station:USF.COMPS:C10:1,2010-05-02T03:20:00Z,27.1690,-82.9260,5.0,34.45,1111122 
COMPS,ioos:station:USF.COMPS:C10:1,2010-05-02T03:40:00Z,27.1690,-82.9260,5.0,34.45,1111122 
COMPS,ioos:station:USF.COMPS:C10:1,2010-05-02T04:00:00Z,27.1690,-82.9260,5.0,34.45,1111122 
COMPS,ioos:station:USF.COMPS:C10:1,2010-05-02T04:20:00Z,27.1690,-82.9260,5.0,34.45,1111122 
COMPS,ioos:station:USF.COMPS:C10:1,2010-05-02T04:40:00Z,27.1690,-82.9260,5.0,34.45,1111122 
COMPS,ioos:station:USF.COMPS:C10:1,2010-05-02T05:00:00Z,27.1690,-82.9260,5.0,34.45,1111122 
COMPS,ioos:station:USF.COMPS:C10:1,2010-05-02T05:20:00Z,27.1690,-82.9260,5.0,34.45,1111122 
COMPS,ioos:station:USF.COMPS:C10:1,2010-05-02T05:40:00Z,27.1690,-82.9260,5.0,34.45,1111122 
COMPS,ioos:station:USF.COMPS:C10:1,2010-05-02T06:00:00Z,27.1690,-82.9260,5.0,34.45,1111122 
COMPS,ioos:station:USF.COMPS:C10:1,2010-05-02T06:20:00Z,27.1690,-82.9260,5.0,34.45,1111122 
COMPS,ioos:station:USF.COMPS:C10:1,2010-05-02T06:40:00Z,27.1690,-82.9260,5.0,34.45,1111122 
COMPS,ioos:station:USF.COMPS:C10:1,2010-05-02T07:00:00Z,27.1690,-82.9260,5.0,34.45,1111122 
COMPS,ioos:station:USF.COMPS:C10:1,2010-05-02T07:20:00Z,27.1690,-82.9260,5.0,34.45,1111122 
COMPS,ioos:station:USF.COMPS:C10:1,2010-05-02T07:40:00Z,27.1690,-82.9260,5.0,34.45,1111122 
COMPS,ioos:station:USF.COMPS:C10:1,2010-05-02T08:00:00Z,27.1690,-82.9260,5.0,34.45,1111122 
COMPS,ioos:station:USF.COMPS:C10:1,2010-05-02T08:20:00Z,27.1690,-82.9260,5.0,34.45,1111122 
COMPS,ioos:station:USF.COMPS:C10:1,2010-05-02T08:40:00Z,27.1690,-82.9260,5.0,34.45,1111122 
COMPS,ioos:station:USF.COMPS:C10:1,2010-05-02T09:00:00Z,27.1690,-82.9260,5.0,34.45,1111122 
COMPS,ioos:station:USF.COMPS:C10:1,2010-05-02T09:20:00Z,27.1690,-82.9260,5.0,34.45,1111122 
COMPS,ioos:station:USF.COMPS:C10:1,2010-05-02T09:40:00Z,27.1690,-82.9260,5.0,34.45,1111122 
COMPS,ioos:station:USF.COMPS:C10:1,2010-05-02T10:00:00Z,27.1690,-82.9260,5.0,34.45,1111122 
COMPS,ioos:station:USF.COMPS:C10:1,2010-05-02T10:20:00Z,27.1690,-82.9260,5.0,34.44,1111122 
COMPS,ioos:station:USF.COMPS:C10:1,2010-05-02T10:40:00Z,27.1690,-82.9260,5.0,34.44,1111122 
COMPS,ioos:station:USF.COMPS:C10:1,2010-05-02T11:00:00Z,27.1690,-82.9260,5.0,34.44,1111122 
COMPS,ioos:station:USF.COMPS:C10:1,2010-05-02T11:20:00Z,27.1690,-82.9260,5.0,34.44,1111122 
COMPS,ioos:station:USF.COMPS:C10:1,2010-05-02T11:40:00Z,27.1690,-82.9260,5.0,34.44,1111122 
COMPS,ioos:station:USF.COMPS:C10:1,2010-05-02T12:00:00Z,27.1690,-82.9260,5.0,34.44,1111122 
COMPS,ioos:station:USF.COMPS:C10:1,2010-05-02T12:20:00Z,27.1690,-82.9260,5.0,34.44,1111122 
COMPS,ioos:station:USF.COMPS:C10:1,2010-05-02T12:40:00Z,27.1690,-82.9260,5.0,34.44,1111122 
COMPS,ioos:station:USF.COMPS:C10:1,2010-05-02T13:00:00Z,27.1690,-82.9260,5.0,34.44,1111122 
COMPS,ioos:station:USF.COMPS:C10:1,2010-05-02T13:20:00Z,27.1690,-82.9260,5.0,34.44,1111122 
COMPS,ioos:station:USF.COMPS:C10:1,2010-05-02T13:40:00Z,27.1690,-82.9260,5.0,34.44,1111122 
COMPS,ioos:station:USF.COMPS:C10:1,2010-05-02T14:00:00Z,27.1690,-82.9260,5.0,34.43,1111122 
COMPS,ioos:station:USF.COMPS:C10:1,2010-05-02T14:20:00Z,27.1690,-82.9260,5.0,34.43,1111122 
COMPS,ioos:station:USF.COMPS:C10:1,2010-05-02T14:40:00Z,27.1690,-82.9260,5.0,34.43,1111122 
COMPS,ioos:station:USF.COMPS:C10:1,2010-05-02T15:00:00Z,27.1690,-82.9260,5.0,34.43,1111122 
COMPS,ioos:station:USF.COMPS:C10:1,2010-05-02T15:20:00Z,27.1690,-82.9260,5.0,34.43,1111122 
COMPS,ioos:station:USF.COMPS:C10:1,2010-05-02T15:40:00Z,27.1690,-82.9260,5.0,34.42,1111122 
COMPS,ioos:station:USF.COMPS:C10:1,2010-05-02T16:00:00Z,27.1690,-82.9260,5.0,34.43,1111122 
COMPS,ioos:station:USF.COMPS:C10:1,2010-05-02T16:20:00Z,27.1690,-82.9260,5.0,34.43,1111122 
COMPS,ioos:station:USF.COMPS:C10:1,2010-05-02T16:40:00Z,27.1690,-82.9260,5.0,34.42,1111122 
COMPS,ioos:station:USF.COMPS:C10:1,2010-05-02T17:00:00Z,27.1690,-82.9260,5.0,34.42,1111122 
COMPS,ioos:station:USF.COMPS:C10:1,2010-05-02T17:20:00Z,27.1690,-82.9260,5.0,34.42,1111122 
COMPS,ioos:station:USF.COMPS:C10:1,2010-05-02T17:40:00Z,27.1690,-82.9260,5.0,34.43,1111122 
COMPS,ioos:station:USF.COMPS:C10:1,2010-05-02T18:00:00Z,27.1690,-82.9260,5.0,34.42,1111122 
COMPS,ioos:station:USF.COMPS:C10:1,2010-05-02T18:20:00Z,27.1690,-82.9260,5.0,34.42,1111122 
COMPS,ioos:station:USF.COMPS:C10:1,2010-05-02T18:40:00Z,27.1690,-82.9260,5.0,34.42,1111122 
COMPS,ioos:station:USF.COMPS:C10:1,2010-05-02T19:00:00Z,27.1690,-82.9260,5.0,34.42,1111122 
COMPS,ioos:station:USF.COMPS:C10:1,2010-05-02T19:20:00Z,27.1690,-82.9260,5.0,34.42,1111122 
COMPS,ioos:station:USF.COMPS:C10:1,2010-05-02T19:40:00Z,27.1690,-82.9260,5.0,34.42,1111122 
COMPS,ioos:station:USF.COMPS:C10:1,2010-05-02T20:00:00Z,27.1690,-82.9260,5.0,34.42,1111122 
COMPS,ioos:station:USF.COMPS:C10:1,2010-05-02T20:20:00Z,27.1690,-82.9260,5.0,34.42,1111122 
COMPS,ioos:station:USF.COMPS:C10:1,2010-05-02T20:40:00Z,27.1690,-82.9260,5.0,34.42,1111122 
COMPS,ioos:station:USF.COMPS:C10:1,2010-05-02T21:00:00Z,27.1690,-82.9260,5.0,34.42,1111122 
COMPS,ioos:station:USF.COMPS:C10:1,2010-05-02T21:20:00Z,27.1690,-82.9260,5.0,34.42,1111122 
COMPS,ioos:station:USF.COMPS:C10:1,2010-05-02T21:40:00Z,27.1690,-82.9260,5.0,34.42,1111122 
COMPS,ioos:station:USF.COMPS:C10:1,2010-05-02T22:00:00Z,27.1690,-82.9260,5.0,34.42,1111122 
COMPS,ioos:station:USF.COMPS:C10:1,2010-05-02T22:20:00Z,27.1690,-82.9260,5.0,34.42,1111122 
COMPS,ioos:station:USF.COMPS:C10:1,2010-05-02T22:40:00Z,27.1690,-82.9260,5.0,34.42,1111122 
COMPS,ioos:station:USF.COMPS:C10:1,2010-05-02T23:00:00Z,27.1690,-82.9260,5.0,34.42,1111122 
COMPS,ioos:station:USF.COMPS:C10:1,2010-05-02T23:20:00Z,27.1690,-82.9260,5.0,34.42,1111122 
COMPS,ioos:station:USF.COMPS:C10:1,2010-05-02T23:40:00Z,27.1690,-82.9260,5.0,34.42,1111122 
COMPS,ioos:station:USF.COMPS:C10:1,2010-05-03T00:00:00Z,27.1690,-82.9260,5.0,34.43,1111122 
COMPS,ioos:station:USF.COMPS:C10:1,2010-05-03T00:20:00Z,27.1690,-82.9260,5.0,34.43,1111122 
COMPS,ioos:station:USF.COMPS:C10:1,2010-05-03T00:40:00Z,27.1690,-82.9260,5.0,34.43,1111122 
COMPS,ioos:station:USF.COMPS:C10:1,2010-05-03T01:00:00Z,27.1690,-82.9260,5.0,34.43,1111122 
COMPS,ioos:station:USF.COMPS:C10:1,2010-05-03T01:20:00Z,27.1690,-82.9260,5.0,34.43,1111122 
COMPS,ioos:station:USF.COMPS:C10:1,2010-05-03T01:40:00Z,27.1690,-82.9260,5.0,34.43,1111122 
COMPS,ioos:station:USF.COMPS:C10:1,2010-05-03T02:00:00Z,27.1690,-82.9260,5.0,34.43,1111122 
COMPS,ioos:station:USF.COMPS:C10:1,2010-05-03T02:20:00Z,27.1690,-82.9260,5.0,34.43,1111122 
COMPS,ioos:station:USF.COMPS:C10:1,2010-05-03T02:40:00Z,27.1690,-82.9260,5.0,34.43,1111122 
COMPS,ioos:station:USF.COMPS:C10:1,2010-05-03T03:00:00Z,27.1690,-82.9260,5.0,34.43,1111122 
COMPS,ioos:station:USF.COMPS:C10:1,2010-05-03T03:20:00Z,27.1690,-82.9260,5.0,34.44,1111122 
COMPS,ioos:station:USF.COMPS:C10:1,2010-05-03T03:40:00Z,27.1690,-82.9260,5.0,34.44,1111122 
COMPS,ioos:station:USF.COMPS:C10:1,2010-05-03T04:00:00Z,27.1690,-82.9260,5.0,34.44,1111122 
COMPS,ioos:station:USF.COMPS:C10:1,2010-05-03T04:20:00Z,27.1690,-82.9260,5.0,34.44,1111122 
COMPS,ioos:station:USF.COMPS:C10:1,2010-05-03T04:40:00Z,27.1690,-82.9260,5.0,34.44,1111122 
COMPS,ioos:station:USF.COMPS:C10:1,2010-05-03T05:00:00Z,27.1690,-82.9260,5.0,34.44,1111122 
COMPS,ioos:station:USF.COMPS:C10:1,2010-05-03T05:20:00Z,27.1690,-82.9260,5.0,34.44,1111122 
COMPS,ioos:station:USF.COMPS:C10:1,2010-05-03T05:40:00Z,27.1690,-82.9260,5.0,34.44,1111122 
COMPS,ioos:station:USF.COMPS:C10:1,2010-05-03T06:00:00Z,27.1690,-82.9260,5.0,34.44,1111122 
COMPS,ioos:station:USF.COMPS:C10:1,2010-05-03T06:20:00Z,27.1690,-82.9260,5.0,34.44,1111122 
COMPS,ioos:station:USF.COMPS:C10:1,2010-05-03T06:40:00Z,27.1690,-82.9260,5.0,34.44,1111122 
COMPS,ioos:station:USF.COMPS:C10:1,2010-05-03T07:00:00Z,27.1690,-82.9260,5.0,34.44,1111122 
COMPS,ioos:station:USF.COMPS:C10:1,2010-05-03T07:20:00Z,27.1690,-82.9260,5.0,34.44,1111122 
COMPS,ioos:station:USF.COMPS:C10:1,2010-05-03T07:40:00Z,27.1690,-82.9260,5.0,34.44,1111122 
COMPS,ioos:station:USF.COMPS:C10:1,2010-05-03T08:00:00Z,27.1690,-82.9260,5.0,34.44,1111122 
COMPS,ioos:station:USF.COMPS:C10:1,2010-05-03T08:20:00Z,27.1690,-82.9260,5.0,34.44,1111122 
COMPS,ioos:station:USF.COMPS:C10:1,2010-05-03T08:40:00Z,27.1690,-82.9260,5.0,34.44,1111122 
COMPS,ioos:station:USF.COMPS:C10:1,2010-05-03T09:00:00Z,27.1690,-82.9260,5.0,34.45,1111122 
COMPS,ioos:station:USF.COMPS:C10:1,2010-05-03T09:20:00Z,27.1690,-82.9260,5.0,34.45,1111122 
COMPS,ioos:station:USF.COMPS:C10:1,2010-05-03T09:40:00Z,27.1690,-82.9260,5.0,34.45,1111122 
COMPS,ioos:station:USF.COMPS:C10:1,2010-05-03T10:00:00Z,27.1690,-82.9260,5.0,34.46,1111122 
COMPS,ioos:station:USF.COMPS:C10:1,2010-05-03T10:20:00Z,27.1690,-82.9260,5.0,34.47,1111122 
COMPS,ioos:station:USF.COMPS:C10:1,2010-05-03T10:40:00Z,27.1690,-82.9260,5.0,34.48,1111122 
COMPS,ioos:station:USF.COMPS:C10:1,2010-05-03T11:00:00Z,27.1690,-82.9260,5.0,34.49,1111122 
COMPS,ioos:station:USF.COMPS:C10:1,2010-05-03T11:20:00Z,27.1690,-82.9260,5.0,34.49,1111122 
COMPS,ioos:station:USF.COMPS:C10:1,2010-05-03T11:40:00Z,27.1690,-82.9260,5.0,34.5,1111122 
COMPS,ioos:station:USF.COMPS:C10:1,2010-05-03T12:00:00Z,27.1690,-82.9260,5.0,34.5,1111122 
COMPS,ioos:station:USF.COMPS:C10:1,2010-05-03T12:20:00Z,27.1690,-82.9260,5.0,34.51,1111122 
COMPS,ioos:station:USF.COMPS:C10:1,2010-05-03T12:40:00Z,27.1690,-82.9260,5.0,34.52,1111122 
COMPS,ioos:station:USF.COMPS:C10:1,2010-05-03T13:00:00Z,27.1690,-82.9260,5.0,34.52,1111122 
COMPS,ioos:station:USF.COMPS:C10:1,2010-05-03T13:20:00Z,27.1690,-82.9260,5.0,34.53,1111122 
COMPS,ioos:station:USF.COMPS:C10:1,2010-05-03T13:40:00Z,27.1690,-82.9260,5.0,34.54,1111122 
COMPS,ioos:station:USF.COMPS:C10:1,2010-05-03T14:00:00Z,27.1690,-82.9260,5.0,34.55,1111122 
COMPS,ioos:station:USF.COMPS:C10:1,2010-05-03T14:20:00Z,27.1690,-82.9260,5.0,34.55,1111122 
COMPS,ioos:station:USF.COMPS:C10:1,2010-05-03T14:40:00Z,27.1690,-82.9260,5.0,34.56,1111122 
COMPS,ioos:station:USF.COMPS:C10:1,2010-05-03T15:00:00Z,27.1690,-82.9260,5.0,34.56,1111122 
COMPS,ioos:station:USF.COMPS:C10:1,2010-05-03T15:20:00Z,27.1690,-82.9260,5.0,34.57,1111122 
COMPS,ioos:station:USF.COMPS:C10:1,2010-05-03T15:40:00Z,27.1690,-82.9260,5.0,34.6,1111122 
COMPS,ioos:station:USF.COMPS:C10:1,2010-05-03T16:00:00Z,27.1690,-82.9260,5.0,34.61,1111122 
COMPS,ioos:station:USF.COMPS:C10:1,2010-05-03T16:20:00Z,27.1690,-82.9260,5.0,34.61,1111122 
COMPS,ioos:station:USF.COMPS:C10:1,2010-05-03T16:40:00Z,27.1690,-82.9260,5.0,34.61,1111122 
COMPS,ioos:station:USF.COMPS:C10:1,2010-05-03T17:00:00Z,27.1690,-82.9260,5.0,34.62,1111122 
COMPS,ioos:station:USF.COMPS:C10:1,2010-05-03T17:20:00Z,27.1690,-82.9260,5.0,34.63,1111122 
COMPS,ioos:station:USF.COMPS:C10:1,2010-05-03T17:40:00Z,27.1690,-82.9260,5.0,34.64,1111122 
COMPS,ioos:station:USF.COMPS:C10:1,2010-05-03T18:00:00Z,27.1690,-82.9260,5.0,34.64,1111122 
COMPS,ioos:station:USF.COMPS:C10:1,2010-05-03T18:20:00Z,27.1690,-82.9260,5.0,34.67,1111122 
COMPS,ioos:station:USF.COMPS:C10:1,2010-05-03T18:40:00Z,27.1690,-82.9260,5.0,34.68,1111122 
COMPS,ioos:station:USF.COMPS:C10:1,2010-05-03T19:00:00Z,27.1690,-82.9260,5.0,34.65,1111122 
COMPS,ioos:station:USF.COMPS:C10:1,2010-05-03T19:20:00Z,27.1690,-82.9260,5.0,34.66,1111122 
COMPS,ioos:station:USF.COMPS:C10:1,2010-05-03T19:40:00Z,27.1690,-82.9260,5.0,34.65,1111122 
COMPS,ioos:station:USF.COMPS:C10:1,2010-05-03T20:00:00Z,27.1690,-82.9260,5.0,34.66,1111122 
COMPS,ioos:station:USF.COMPS:C10:1,2010-05-03T20:20:00Z,27.1690,-82.9260,5.0,34.64,1111122 
COMPS,ioos:station:USF.COMPS:C10:1,2010-05-03T20:40:00Z,27.1690,-82.9260,5.0,34.66,1111122 
COMPS,ioos:station:USF.COMPS:C10:1,2010-05-03T21:00:00Z,27.1690,-82.9260,5.0,34.65,1111122 
COMPS,ioos:station:USF.COMPS:C10:1,2010-05-03T21:20:00Z,27.1690,-82.9260,5.0,34.64,1111122 
COMPS,ioos:station:USF.COMPS:C10:1,2010-05-03T21:40:00Z,27.1690,-82.9260,5.0,34.66,1111122 
COMPS,ioos:station:USF.COMPS:C10:1,2010-05-03T22:00:00Z,27.1690,-82.9260,5.0,34.66,1111122 
COMPS,ioos:station:USF.COMPS:C10:1,2010-05-03T22:20:00Z,27.1690,-82.9260,5.0,34.68,1111122 
COMPS,ioos:station:USF.COMPS:C10:1,2010-05-03T22:40:00Z,27.1690,-82.9260,5.0,34.66,1111122 
COMPS,ioos:station:USF.COMPS:C10:1,2010-05-03T23:00:00Z,27.1690,-82.9260,5.0,34.65,1111122 
COMPS,ioos:station:USF.COMPS:C10:1,2010-05-03T23:20:00Z,27.1690,-82.9260,5.0,34.71,1111122 
COMPS,ioos:station:USF.COMPS:C10:1,2010-05-03T23:40:00Z,27.1690,-82.9260,5.0,34.66,1111122 
COMPS,ioos:station:USF.COMPS:C10:1,2010-05-04T00:00:00Z,27.1690,-82.9260,5.0,34.65,1111122 
COMPS,ioos:station:USF.COMPS:C10:1,2010-05-04T00:20:00Z,27.1690,-82.9260,5.0,34.63,1111122 
COMPS,ioos:station:USF.COMPS:C10:1,2010-05-04T00:40:00Z,27.1690,-82.9260,5.0,34.63,1111122 
COMPS,ioos:station:USF.COMPS:C10:1,2010-05-04T01:00:00Z,27.1690,-82.9260,5.0,34.64,1111122 
COMPS,ioos:station:USF.COMPS:C10:1,2010-05-04T01:20:00Z,27.1690,-82.9260,5.0,34.64,1111122 
COMPS,ioos:station:USF.COMPS:C10:1,2010-05-04T01:40:00Z,27.1690,-82.9260,5.0,34.62,1111122 
COMPS,ioos:station:USF.COMPS:C10:1,2010-05-04T02:00:00Z,27.1690,-82.9260,5.0,34.61,1111122 
COMPS,ioos:station:USF.COMPS:C10:1,2010-05-04T02:20:00Z,27.1690,-82.9260,5.0,34.64,1111122 
COMPS,ioos:station:USF.COMPS:C10:1,2010-05-04T02:40:00Z,27.1690,-82.9260,5.0,34.61,1111122 
COMPS,ioos:station:USF.COMPS:C10:1,2010-05-04T03:00:00Z,27.1690,-82.9260,5.0,34.64,1111122 
COMPS,ioos:station:USF.COMPS:C10:1,2010-05-04T03:20:00Z,27.1690,-82.9260,5.0,34.64,1111122 
COMPS,ioos:station:USF.COMPS:C10:1,2010-05-04T03:40:00Z,27.1690,-82.9260,5.0,34.64,1111122 
COMPS,ioos:station:USF.COMPS:C10:1,2010-05-04T04:00:00Z,27.1690,-82.9260,5.0,34.65,1111122 
COMPS,ioos:station:USF.COMPS:C10:1,2010-05-04T04:20:00Z,27.1690,-82.9260,5.0,34.65,1111122 
COMPS,ioos:station:USF.COMPS:C10:1,2010-05-04T04:40:00Z,27.1690,-82.9260,5.0,34.64,1111122 
COMPS,ioos:station:USF.COMPS:C10:1,2010-05-04T05:00:00Z,27.1690,-82.9260,5.0,34.62,1111122 
COMPS,ioos:station:USF.COMPS:C10:1,2010-05-04T05:20:00Z,27.1690,-82.9260,5.0,34.62,1111122 
COMPS,ioos:station:USF.COMPS:C10:1,2010-05-04T05:40:00Z,27.1690,-82.9260,5.0,34.59,1111122 
COMPS,ioos:station:USF.COMPS:C10:1,2010-05-04T06:00:00Z,27.1690,-82.9260,5.0,34.58,1111122 
COMPS,ioos:station:USF.COMPS:C10:1,2010-05-04T06:20:00Z,27.1690,-82.9260,5.0,34.56,1111122 
COMPS,ioos:station:USF.COMPS:C10:1,2010-05-04T06:40:00Z,27.1690,-82.9260,5.0,34.63,1111122 
COMPS,ioos:station:USF.COMPS:C10:1,2010-05-04T07:00:00Z,27.1690,-82.9260,5.0,34.6,1111122 
COMPS,ioos:station:USF.COMPS:C10:1,2010-05-04T07:20:00Z,27.1690,-82.9260,5.0,34.62,1111122 
COMPS,ioos:station:USF.COMPS:C10:1,2010-05-04T07:40:00Z,27.1690,-82.9260,5.0,34.62,1111122 
COMPS,ioos:station:USF.COMPS:C10:1,2010-05-04T08:00:00Z,27.1690,-82.9260,5.0,34.62,1111122 
COMPS,ioos:station:USF.COMPS:C10:1,2010-05-04T08:20:00Z,27.1690,-82.9260,5.0,34.62,1111122 
COMPS,ioos:station:USF.COMPS:C10:1,2010-05-04T08:40:00Z,27.1690,-82.9260,5.0,34.59,1111122 
COMPS,ioos:station:USF.COMPS:C10:1,2010-05-04T09:00:00Z,27.1690,-82.9260,5.0,34.62,1111122 
COMPS,ioos:station:USF.COMPS:C10:1,2010-05-04T09:20:00Z,27.1690,-82.9260,5.0,34.61,1111122 
COMPS,ioos:station:USF.COMPS:C10:1,2010-05-04T09:40:00Z,27.1690,-82.9260,5.0,34.6,1111122 
COMPS,ioos:station:USF.COMPS:C10:1,2010-05-04T10:00:00Z,27.1690,-82.9260,5.0,34.6,1111122 
COMPS,ioos:station:USF.COMPS:C10:1,2010-05-04T10:20:00Z,27.1690,-82.9260,5.0,34.59,1111122 
COMPS,ioos:station:USF.COMPS:C10:1,2010-05-04T10:40:00Z,27.1690,-82.9260,5.0,34.59,1111122 
COMPS,ioos:station:USF.COMPS:C10:1,2010-05-04T11:00:00Z,27.1690,-82.9260,5.0,34.58,1111122 
COMPS,ioos:station:USF.COMPS:C10:1,2010-05-04T11:20:00Z,27.1690,-82.9260,5.0,34.58,1111122 
COMPS,ioos:station:USF.COMPS:C10:1,2010-05-04T11:40:00Z,27.1690,-82.9260,5.0,34.57,1111122 
COMPS,ioos:station:USF.COMPS:C10:1,2010-05-04T12:00:00Z,27.1690,-82.9260,5.0,34.56,1111122 
COMPS,ioos:station:USF.COMPS:C10:1,2010-05-04T12:20:00Z,27.1690,-82.9260,5.0,34.55,1111122 
COMPS,ioos:station:USF.COMPS:C10:1,2010-05-04T12:40:00Z,27.1690,-82.9260,5.0,34.54,1111122 
COMPS,ioos:station:USF.COMPS:C10:1,2010-05-04T13:00:00Z,27.1690,-82.9260,5.0,34.55,1111122 
COMPS,ioos:station:USF.COMPS:C10:1,2010-05-04T13:20:00Z,27.1690,-82.9260,5.0,34.56,1111122 
COMPS,ioos:station:USF.COMPS:C10:1,2010-05-04T13:40:00Z,27.1690,-82.9260,5.0,34.56,1111122 
COMPS,ioos:station:USF.COMPS:C10:1,2010-05-04T14:00:00Z,27.1690,-82.9260,5.0,34.56,1111122 
COMPS,ioos:station:USF.COMPS:C10:1,2010-05-04T14:20:00Z,27.1690,-82.9260,5.0,34.56,1111122 